sat.trackr.live / text

‹ back to catalog

STARLINK-3908

NORAD 52491 · 2022-049AS

PAYLOAD ACTIVE UNKNOWN

§ Identity

Operator
Country
US
Launch date
2022-05-06
Launch site
AFETR
Launch vehicle
Mass (kg)
RCS (m²)

Purposes: comms

External: N2YO · Heavens-Above · Gunter

§ Orbital elements

Epoch: 2026-09-20T00:08:05.383104Z

Period
93.95 min
Inclination
53.1526°
Eccentricity
0.0003791
Mean motion
15.32747893 rev/d
Perigee alt
465.0 km
Apogee alt
470.2 km
Semi-major
6,845.8 km
B*
3.5208e-2
RAAN
252.1611°
Arg perigee
134.6840°
Mean anomaly
225.4471°
Rev number
24,178

§ Raw data

STARLINK-39081 52491U 22049AS  26263.00561786  .01230347  00000+0  35208-1 0  99982 52491  53.1526 252.1611 0003791 134.6840 225.4471 15.32747893241785

JSON: /api/v1/satellites/52491 · /tle

For live sub-satellite position, see the globe view (requires WebGL).

§ Visibility from observer

Set your observer location to see the next 7 days of passes ≥ 10°. The values pass through the URL so the page stays shareable.

No JS? Fill the form by hand. The geolocation button needs JavaScript.